Year,Month,Day,Hour,Minute,Value (Times are PST for temperature in C)
2009,09,27,00,00,7.80
2009,09,27,00,01,7.70
2009,09,27,00,02,7.70
2009,09,27,00,03,7.70
2009,09,27,00,04,7.70
2009,09,27,00,05,7.70
2009,09,27,00,06,7.70
2009,09,27,00,07,7.70
2009,09,27,00,08,7.70
2009,09,27,00,09,7.70
2009,09,27,00,10,7.60
2009,09,27,00,11,7.60
2009,09,27,00,12,7.60
2009,09,27,00,13,7.60
2009,09,27,00,14,7.60
2009,09,27,00,15,7.60
2009,09,27,00,16,7.60
2009,09,27,00,17,7.60
2009,09,27,00,18,7.60
2009,09,27,00,19,7.60
2009,09,27,00,20,7.60
2009,09,27,00,21,7.50
2009,09,27,00,22,7.50
2009,09,27,00,23,7.40
2009,09,27,00,24,7.30
2009,09,27,00,25,7.30
2009,09,27,00,26,7.30
2009,09,27,00,27,7.30
2009,09,27,00,28,7.30
2009,09,27,00,29,7.30
2009,09,27,00,30,7.30
2009,09,27,00,31,7.30
2009,09,27,00,32,7.30
2009,09,27,00,33,7.20
2009,09,27,00,34,7.20
2009,09,27,00,35,7.20
2009,09,27,00,36,7.10
2009,09,27,00,37,7.10
2009,09,27,00,38,7.00
2009,09,27,00,39,7.00
2009,09,27,00,40,6.90
2009,09,27,00,41,6.90
2009,09,27,00,42,6.90
2009,09,27,00,43,6.90
2009,09,27,00,44,6.90
2009,09,27,00,45,6.90
2009,09,27,00,46,6.90
2009,09,27,00,47,6.90
2009,09,27,00,48,6.90
2009,09,27,00,49,6.90
2009,09,27,00,50,6.90
2009,09,27,00,51,6.90
2009,09,27,00,52,6.90
2009,09,27,00,53,6.90
2009,09,27,00,54,6.90
2009,09,27,00,55,6.90
2009,09,27,00,56,6.80
2009,09,27,00,57,6.80
2009,09,27,00,58,6.80
2009,09,27,00,59,6.80
2009,09,27,01,00,6.80
2009,09,27,01,01,6.80
2009,09,27,01,02,6.80
2009,09,27,01,03,6.80
2009,09,27,01,04,6.80
2009,09,27,01,05,6.80
2009,09,27,01,06,6.70
2009,09,27,01,07,6.70
2009,09,27,01,08,6.70
2009,09,27,01,09,6.60
2009,09,27,01,10,6.60
2009,09,27,01,11,6.60
2009,09,27,01,12,6.60
2009,09,27,01,13,6.60
2009,09,27,01,14,6.60
2009,09,27,01,15,6.60
2009,09,27,01,16,6.60
2009,09,27,01,17,6.60
2009,09,27,01,18,6.60
2009,09,27,01,19,6.60
2009,09,27,01,20,6.60
2009,09,27,01,21,6.60
2009,09,27,01,22,6.50
2009,09,27,01,23,6.40
2009,09,27,01,24,6.40
2009,09,27,01,25,6.40
2009,09,27,01,26,6.40
2009,09,27,01,27,6.40
2009,09,27,01,28,6.40
2009,09,27,01,29,6.40
2009,09,27,01,30,6.40
2009,09,27,01,31,6.40
2009,09,27,01,32,6.30
2009,09,27,01,33,6.30
2009,09,27,01,34,6.30
2009,09,27,01,35,6.30
2009,09,27,01,36,6.30
2009,09,27,01,37,6.30
2009,09,27,01,38,6.30
2009,09,27,01,39,6.30
2009,09,27,01,40,6.30
2009,09,27,01,41,6.30
2009,09,27,01,42,6.30
2009,09,27,01,43,6.20
2009,09,27,01,44,6.20
2009,09,27,01,45,6.20
2009,09,27,01,46,6.20
2009,09,27,01,47,6.20
2009,09,27,01,48,6.20
2009,09,27,01,49,6.20
2009,09,27,01,50,6.20
2009,09,27,01,51,6.20
2009,09,27,01,52,6.20
2009,09,27,01,53,6.20
2009,09,27,01,54,6.20
2009,09,27,01,55,6.20
2009,09,27,01,56,6.20
2009,09,27,01,57,6.10
2009,09,27,01,58,6.10
2009,09,27,01,59,6.10
2009,09,27,02,00,6.10
2009,09,27,02,01,6.00
2009,09,27,02,02,6.00
2009,09,27,02,03,6.00
2009,09,27,02,04,5.90
2009,09,27,02,05,5.90
2009,09,27,02,06,5.90
2009,09,27,02,07,5.90
2009,09,27,02,08,6.00
2009,09,27,02,09,6.00
2009,09,27,02,10,6.00
2009,09,27,02,11,6.00
2009,09,27,02,12,5.90
2009,09,27,02,13,5.90
2009,09,27,02,14,5.90
2009,09,27,02,15,5.90
2009,09,27,02,16,5.80
2009,09,27,02,17,5.80
2009,09,27,02,18,5.80
2009,09,27,02,19,5.70
2009,09,27,02,20,5.70
2009,09,27,02,21,5.70
2009,09,27,02,22,5.70
2009,09,27,02,23,5.70
2009,09,27,02,24,5.70
2009,09,27,02,25,5.70
2009,09,27,02,26,5.80
2009,09,27,02,27,5.80
2009,09,27,02,28,5.80
2009,09,27,02,29,5.80
2009,09,27,02,30,5.70
2009,09,27,02,31,5.70
2009,09,27,02,32,5.70
2009,09,27,02,33,5.70
2009,09,27,02,34,5.70
2009,09,27,02,35,5.70
2009,09,27,02,36,5.70
2009,09,27,02,37,5.70
2009,09,27,02,38,5.70
2009,09,27,02,39,5.70
2009,09,27,02,40,5.70
2009,09,27,02,41,5.70
2009,09,27,02,42,5.70
2009,09,27,02,43,5.70
2009,09,27,02,44,5.70
2009,09,27,02,45,5.70
2009,09,27,02,46,5.70
2009,09,27,02,47,5.60
2009,09,27,02,48,5.60
2009,09,27,02,49,5.60
2009,09,27,02,50,5.50
2009,09,27,02,51,5.50
2009,09,27,02,52,5.50
2009,09,27,02,53,5.50
2009,09,27,02,54,5.40
2009,09,27,02,55,5.40
2009,09,27,02,56,5.30
2009,09,27,02,57,5.30
2009,09,27,02,58,5.30
2009,09,27,02,59,5.30
2009,09,27,03,00,5.30
2009,09,27,03,01,5.30
2009,09,27,03,02,5.20
2009,09,27,03,03,5.20
2009,09,27,03,04,5.20
2009,09,27,03,05,5.20
2009,09,27,03,06,5.20
2009,09,27,03,07,5.20
2009,09,27,03,08,5.20
2009,09,27,03,09,5.10
2009,09,27,03,10,5.10
2009,09,27,03,11,5.10
2009,09,27,03,12,5.10
2009,09,27,03,13,5.10
2009,09,27,03,14,5.10
2009,09,27,03,15,5.10
2009,09,27,03,16,5.00
2009,09,27,03,17,4.90
2009,09,27,03,18,4.90
2009,09,27,03,19,4.90
2009,09,27,03,20,4.90
2009,09,27,03,21,4.90
2009,09,27,03,22,4.90
2009,09,27,03,23,4.90
2009,09,27,03,24,4.90
2009,09,27,03,25,4.90
2009,09,27,03,26,4.90
2009,09,27,03,27,4.90
2009,09,27,03,28,4.80
2009,09,27,03,29,4.80
2009,09,27,03,30,4.80
2009,09,27,03,31,4.80
2009,09,27,03,32,4.80
2009,09,27,03,33,4.80
2009,09,27,03,34,4.80
2009,09,27,03,35,4.80
2009,09,27,03,36,4.80
2009,09,27,03,37,4.80
2009,09,27,03,38,4.70
2009,09,27,03,39,4.70
2009,09,27,03,40,4.70
2009,09,27,03,41,4.70
2009,09,27,03,42,4.60
2009,09,27,03,43,4.60
2009,09,27,03,44,4.60
2009,09,27,03,45,4.60
2009,09,27,03,46,4.60
2009,09,27,03,47,4.60
2009,09,27,03,48,4.60
2009,09,27,03,49,4.60
2009,09,27,03,50,4.60
2009,09,27,03,51,4.60
2009,09,27,03,52,4.60
2009,09,27,03,53,4.50
2009,09,27,03,54,4.50
2009,09,27,03,55,4.50
2009,09,27,03,56,4.50
2009,09,27,03,57,4.50
2009,09,27,03,58,4.40
2009,09,27,03,59,4.40
2009,09,27,04,00,4.40
2009,09,27,04,01,4.40
2009,09,27,04,02,4.40
2009,09,27,04,03,4.40
2009,09,27,04,04,4.40
2009,09,27,04,05,4.40
2009,09,27,04,06,4.40
2009,09,27,04,07,4.40
2009,09,27,04,08,4.40
2009,09,27,04,09,4.40
2009,09,27,04,10,4.40
2009,09,27,04,11,4.40
2009,09,27,04,12,4.40
2009,09,27,04,13,4.40
2009,09,27,04,14,4.40
2009,09,27,04,15,4.40
2009,09,27,04,16,4.40
2009,09,27,04,17,4.40
2009,09,27,04,18,4.40
2009,09,27,04,19,4.40
2009,09,27,04,20,4.40
2009,09,27,04,21,4.40
2009,09,27,04,22,4.30
2009,09,27,04,23,4.30
2009,09,27,04,24,4.30
2009,09,27,04,25,4.30
2009,09,27,04,26,4.30
2009,09,27,04,27,4.40
2009,09,27,04,28,4.40
2009,09,27,04,29,4.40
2009,09,27,04,30,4.40
2009,09,27,04,31,4.30
2009,09,27,04,32,4.30
2009,09,27,04,33,4.30
2009,09,27,04,34,4.30
2009,09,27,04,35,4.20
2009,09,27,04,36,4.20
2009,09,27,04,37,4.20
2009,09,27,04,38,4.20
2009,09,27,04,39,4.20
2009,09,27,04,40,4.20
2009,09,27,04,41,4.20
2009,09,27,04,42,4.30
2009,09,27,04,43,4.30
2009,09,27,04,44,4.30
2009,09,27,04,45,4.30
2009,09,27,04,46,4.30
2009,09,27,04,47,4.30
2009,09,27,04,48,4.30
2009,09,27,04,49,4.30
2009,09,27,04,50,4.30
2009,09,27,04,51,4.30
2009,09,27,04,52,4.30
2009,09,27,04,53,4.30
2009,09,27,04,54,4.40
2009,09,27,04,55,4.40
2009,09,27,04,56,4.40
2009,09,27,04,57,4.50
2009,09,27,04,58,4.50
2009,09,27,04,59,4.50
2009,09,27,05,00,4.50
2009,09,27,05,01,4.40
2009,09,27,05,02,4.40
2009,09,27,05,03,4.40
2009,09,27,05,04,4.40
2009,09,27,05,05,4.40
2009,09,27,05,06,4.40
2009,09,27,05,07,4.30
2009,09,27,05,08,4.30
2009,09,27,05,09,4.30
2009,09,27,05,10,4.30
2009,09,27,05,11,4.30
2009,09,27,05,12,4.30
2009,09,27,05,13,4.30
2009,09,27,05,14,4.30
2009,09,27,05,15,4.30
2009,09,27,05,16,4.20
2009,09,27,05,17,4.20
2009,09,27,05,18,4.20
2009,09,27,05,19,4.20
2009,09,27,05,20,4.20
2009,09,27,05,21,4.20
2009,09,27,05,22,4.20
2009,09,27,05,23,4.30
2009,09,27,05,24,4.30
2009,09,27,05,25,4.30
2009,09,27,05,26,4.30
2009,09,27,05,27,4.40
2009,09,27,05,28,4.40
2009,09,27,05,29,4.40
2009,09,27,05,30,4.40
2009,09,27,05,31,4.40
2009,09,27,05,32,4.40
2009,09,27,05,33,4.30
2009,09,27,05,34,4.30
2009,09,27,05,35,4.30
2009,09,27,05,36,4.30
2009,09,27,05,37,4.30
2009,09,27,05,38,4.30
2009,09,27,05,39,4.20
2009,09,27,05,40,4.20
2009,09,27,05,41,4.20
2009,09,27,05,42,4.20
2009,09,27,05,43,4.10
2009,09,27,05,44,4.10
2009,09,27,05,45,4.10
2009,09,27,05,46,4.10
2009,09,27,05,47,4.10
2009,09,27,05,48,4.20
2009,09,27,05,49,4.20
2009,09,27,05,50,4.20
2009,09,27,05,51,4.20
2009,09,27,05,52,4.20
2009,09,27,05,53,4.20
2009,09,27,05,54,4.30
2009,09,27,05,55,4.30
2009,09,27,05,56,4.30
2009,09,27,05,57,4.30
2009,09,27,05,58,4.30
2009,09,27,05,59,4.30
2009,09,27,06,00,4.30
2009,09,27,06,01,4.30
2009,09,27,06,02,4.30
2009,09,27,06,03,4.30
2009,09,27,06,04,4.30
2009,09,27,06,05,4.30
2009,09,27,06,06,4.20
2009,09,27,06,07,4.20
2009,09,27,06,08,4.20
2009,09,27,06,09,4.20
2009,09,27,06,10,4.20
2009,09,27,06,11,4.20
2009,09,27,06,12,4.20
2009,09,27,06,13,4.20
2009,09,27,06,14,4.20
2009,09,27,06,15,4.10
2009,09,27,06,16,4.10
2009,09,27,06,17,4.10
2009,09,27,06,18,4.10
2009,09,27,06,19,4.10
2009,09,27,06,20,4.20
2009,09,27,06,21,4.20
2009,09,27,06,22,4.20
2009,09,27,06,23,4.20
2009,09,27,06,24,4.20
2009,09,27,06,25,4.20
2009,09,27,06,26,4.20
2009,09,27,06,27,4.20
2009,09,27,06,28,4.20
2009,09,27,06,29,4.20
2009,09,27,06,30,4.20
2009,09,27,06,31,4.20
2009,09,27,06,32,4.30
2009,09,27,06,33,4.30
2009,09,27,06,34,4.30
2009,09,27,06,35,4.30
2009,09,27,06,36,4.30
2009,09,27,06,37,4.30
2009,09,27,06,38,4.30
2009,09,27,06,39,4.40
2009,09,27,06,40,4.40
2009,09,27,06,41,4.50
2009,09,27,06,42,4.50
2009,09,27,06,43,4.50
2009,09,27,06,44,4.50
2009,09,27,06,45,4.50
2009,09,27,06,46,4.50
2009,09,27,06,47,4.50
2009,09,27,06,48,4.50
2009,09,27,06,49,4.60
2009,09,27,06,50,4.60
2009,09,27,06,51,4.60
2009,09,27,06,52,4.60
2009,09,27,06,53,4.70
2009,09,27,06,54,4.70
2009,09,27,06,55,4.70
2009,09,27,06,56,4.80
2009,09,27,06,57,4.80
2009,09,27,06,58,4.80
2009,09,27,06,59,4.80
2009,09,27,07,00,4.90
2009,09,27,07,01,4.90
2009,09,27,07,02,4.90
2009,09,27,07,03,4.90
2009,09,27,07,04,4.90
2009,09,27,07,05,4.90
2009,09,27,07,06,4.90
2009,09,27,07,07,4.90
2009,09,27,07,08,4.90
2009,09,27,07,09,4.90
2009,09,27,07,10,4.90
2009,09,27,07,11,4.90
2009,09,27,07,12,4.90
2009,09,27,07,13,4.90
2009,09,27,07,14,4.90
2009,09,27,07,15,4.90
2009,09,27,07,16,4.90
2009,09,27,07,17,4.90
2009,09,27,07,18,4.90
2009,09,27,07,19,4.90
2009,09,27,07,20,4.90
2009,09,27,07,21,4.90
2009,09,27,07,22,4.90
2009,09,27,07,23,4.90
2009,09,27,07,24,4.80
2009,09,27,07,25,4.80
2009,09,27,07,26,4.70
2009,09,27,07,27,4.70
2009,09,27,07,28,4.60
2009,09,27,07,29,4.60
2009,09,27,07,30,4.60
2009,09,27,07,31,4.60
2009,09,27,07,32,4.60
2009,09,27,07,33,4.70
2009,09,27,07,34,4.70
2009,09,27,07,35,4.70
2009,09,27,07,36,4.70
2009,09,27,07,37,4.70
2009,09,27,07,38,4.70
2009,09,27,07,39,4.70
2009,09,27,07,40,4.60
2009,09,27,07,41,4.60
2009,09,27,07,42,4.60
2009,09,27,07,43,4.60
2009,09,27,07,44,4.60
2009,09,27,07,45,4.60
2009,09,27,07,46,4.60
2009,09,27,07,47,4.60
2009,09,27,07,48,4.60
2009,09,27,07,49,4.60
2009,09,27,07,50,4.70
2009,09,27,07,51,4.70
2009,09,27,07,52,4.80
2009,09,27,07,53,4.80
2009,09,27,07,54,4.90
2009,09,27,07,55,4.90
2009,09,27,07,56,4.90
2009,09,27,07,57,4.90
2009,09,27,07,58,5.00
2009,09,27,07,59,5.10
2009,09,27,08,00,5.10
2009,09,27,08,01,5.10
2009,09,27,08,02,5.10
2009,09,27,08,03,5.10
2009,09,27,08,04,5.10
2009,09,27,08,05,5.20
2009,09,27,08,06,5.30
2009,09,27,08,07,5.30
2009,09,27,08,08,5.30
2009,09,27,08,09,5.30
2009,09,27,08,10,5.40
2009,09,27,08,11,5.40
2009,09,27,08,12,5.50
2009,09,27,08,13,5.60
2009,09,27,08,14,5.60
2009,09,27,08,15,5.70
2009,09,27,08,16,5.70
2009,09,27,08,17,5.90
2009,09,27,08,18,6.00
2009,09,27,08,19,6.10
2009,09,27,08,20,6.20
2009,09,27,08,21,6.40
2009,09,27,08,22,6.50
2009,09,27,08,23,6.70
2009,09,27,08,24,6.80
2009,09,27,08,25,7.00
2009,09,27,08,26,7.10
2009,09,27,08,27,7.30
2009,09,27,08,28,7.40
2009,09,27,08,29,7.60
2009,09,27,08,30,7.70
2009,09,27,08,31,7.90
2009,09,27,08,32,8.00
2009,09,27,08,33,8.20
2009,09,27,08,34,8.40
2009,09,27,08,35,8.50
2009,09,27,08,36,8.70
2009,09,27,08,37,8.80
2009,09,27,08,38,8.90
2009,09,27,08,39,9.10
2009,09,27,08,40,9.20
2009,09,27,08,41,9.30
2009,09,27,08,42,9.50
2009,09,27,08,43,9.60
2009,09,27,08,44,9.70
2009,09,27,08,45,9.80
2009,09,27,08,46,10.00
2009,09,27,08,47,10.10
2009,09,27,08,48,10.20
2009,09,27,08,49,10.30
2009,09,27,08,50,10.40
2009,09,27,08,51,10.60
2009,09,27,08,52,10.70
2009,09,27,08,53,10.80
2009,09,27,08,54,10.90
2009,09,27,08,55,11.00
2009,09,27,08,56,11.10
2009,09,27,08,57,11.20
2009,09,27,08,58,11.30
2009,09,27,08,59,11.40
2009,09,27,09,00,11.60
2009,09,27,09,01,11.60
2009,09,27,09,02,11.70
2009,09,27,09,03,11.80
2009,09,27,09,04,11.80
2009,09,27,09,05,11.90
2009,09,27,09,06,12.00
2009,09,27,09,07,12.00
2009,09,27,09,08,12.10
2009,09,27,09,09,12.20
2009,09,27,09,10,12.20
2009,09,27,09,11,12.30
2009,09,27,09,12,12.30
2009,09,27,09,13,12.40
2009,09,27,09,14,12.40
2009,09,27,09,15,12.50
2009,09,27,09,16,12.50
2009,09,27,09,17,12.50
2009,09,27,09,18,12.60
2009,09,27,09,19,12.70
2009,09,27,09,20,12.70
2009,09,27,09,21,12.80
2009,09,27,09,22,12.80
2009,09,27,09,23,12.80
2009,09,27,09,24,12.80
2009,09,27,09,25,12.80
2009,09,27,09,26,12.90
2009,09,27,09,27,12.90
2009,09,27,09,28,13.00
2009,09,27,09,29,13.00
2009,09,27,09,30,13.10
2009,09,27,09,31,13.10
2009,09,27,09,32,13.10
2009,09,27,09,33,13.10
2009,09,27,09,34,13.10
2009,09,27,09,35,13.10
2009,09,27,09,36,13.10
2009,09,27,09,37,13.20
2009,09,27,09,38,13.20
2009,09,27,09,39,13.30
2009,09,27,09,40,13.30
2009,09,27,09,41,13.40
2009,09,27,09,42,13.40
2009,09,27,09,43,13.50
2009,09,27,09,44,13.50
2009,09,27,09,45,13.60
2009,09,27,09,46,13.70
2009,09,27,09,47,13.70
2009,09,27,09,48,13.70
2009,09,27,09,49,13.80
2009,09,27,09,50,13.90
2009,09,27,09,51,13.90
2009,09,27,09,52,14.00
2009,09,27,09,53,14.00
2009,09,27,09,54,14.10
2009,09,27,09,55,14.10
2009,09,27,09,56,14.10
2009,09,27,09,57,14.10
2009,09,27,09,58,14.10
2009,09,27,09,59,14.10
2009,09,27,10,00,14.10
2009,09,27,10,01,14.10
2009,09,27,10,02,14.20
2009,09,27,10,03,14.20
2009,09,27,10,04,14.20
2009,09,27,10,05,14.20
2009,09,27,10,06,14.30
2009,09,27,10,07,14.30
2009,09,27,10,08,14.40
2009,09,27,10,09,14.50
2009,09,27,10,10,14.50
2009,09,27,10,11,14.50
2009,09,27,10,12,14.50
2009,09,27,10,13,14.50
2009,09,27,10,14,14.60
2009,09,27,10,15,14.60
2009,09,27,10,16,14.70
2009,09,27,10,17,14.70
2009,09,27,10,18,14.80
2009,09,27,10,19,14.80
2009,09,27,10,20,14.80
2009,09,27,10,21,14.90
2009,09,27,10,22,14.90
2009,09,27,10,23,14.90
2009,09,27,10,24,14.90
2009,09,27,10,25,14.90
2009,09,27,10,26,14.90
2009,09,27,10,27,14.90
2009,09,27,10,28,14.90
2009,09,27,10,29,15.00
2009,09,27,10,30,15.00
2009,09,27,10,31,15.00
2009,09,27,10,32,15.00
2009,09,27,10,33,15.10
2009,09,27,10,34,15.10
2009,09,27,10,35,15.10
2009,09,27,10,36,15.20
2009,09,27,10,37,15.20
2009,09,27,10,38,15.30
2009,09,27,10,39,15.30
2009,09,27,10,40,15.30
2009,09,27,10,41,15.30
2009,09,27,10,42,15.30
2009,09,27,10,43,15.40
2009,09,27,10,44,15.50
2009,09,27,10,45,15.60
2009,09,27,10,46,15.60
2009,09,27,10,47,15.70
2009,09,27,10,48,15.70
2009,09,27,10,49,15.80
2009,09,27,10,50,15.80
2009,09,27,10,51,15.80
2009,09,27,10,52,15.80
2009,09,27,10,53,15.90
2009,09,27,10,54,15.90
2009,09,27,10,55,15.90
2009,09,27,10,56,15.90
2009,09,27,10,57,16.00
2009,09,27,10,58,16.10
2009,09,27,10,59,16.10
2009,09,27,11,00,16.10
2009,09,27,11,01,16.10
2009,09,27,11,02,16.10
2009,09,27,11,03,16.10
2009,09,27,11,04,16.10
2009,09,27,11,05,16.00
2009,09,27,11,06,15.90
2009,09,27,11,07,15.90
2009,09,27,11,08,15.90
2009,09,27,11,09,15.90
2009,09,27,11,10,15.90
2009,09,27,11,11,15.90
2009,09,27,11,12,15.90
2009,09,27,11,13,15.90
2009,09,27,11,14,15.90
2009,09,27,11,15,15.90
2009,09,27,11,16,15.90
2009,09,27,11,17,16.00
2009,09,27,11,18,16.10
2009,09,27,11,19,16.10
2009,09,27,11,20,16.10
2009,09,27,11,21,16.10
2009,09,27,11,22,16.10
2009,09,27,11,23,16.20
2009,09,27,11,24,16.20
2009,09,27,11,25,16.30
2009,09,27,11,26,16.40
2009,09,27,11,27,16.40
2009,09,27,11,28,16.40
2009,09,27,11,29,16.50
2009,09,27,11,30,16.60
2009,09,27,11,31,16.50
2009,09,27,11,32,16.50
2009,09,27,11,33,16.60
2009,09,27,11,34,16.60
2009,09,27,11,35,16.60
2009,09,27,11,36,16.60
2009,09,27,11,37,16.60
2009,09,27,11,38,16.60
2009,09,27,11,39,16.70
2009,09,27,11,40,16.70
2009,09,27,11,41,16.70
2009,09,27,11,42,16.70
2009,09,27,11,43,16.70
2009,09,27,11,44,16.60
2009,09,27,11,45,16.60
2009,09,27,11,46,16.70
2009,09,27,11,47,16.70
2009,09,27,11,48,16.80
2009,09,27,11,49,16.90
2009,09,27,11,50,16.90
2009,09,27,11,51,16.80
2009,09,27,11,52,16.80
2009,09,27,11,53,16.80
2009,09,27,11,54,16.70
2009,09,27,11,55,16.80
2009,09,27,11,56,16.80
2009,09,27,11,57,16.90
2009,09,27,11,58,17.00
2009,09,27,11,59,17.00
2009,09,27,12,00,17.20
2009,09,27,12,01,17.30
2009,09,27,12,02,17.30
2009,09,27,12,03,17.30
2009,09,27,12,04,17.30
2009,09,27,12,05,17.20
2009,09,27,12,06,17.20
2009,09,27,12,07,17.10
2009,09,27,12,08,17.10
2009,09,27,12,09,17.00
2009,09,27,12,10,17.00
2009,09,27,12,11,17.10
2009,09,27,12,12,17.10
2009,09,27,12,13,17.20
2009,09,27,12,14,17.30
2009,09,27,12,15,17.40
2009,09,27,12,16,17.50
2009,09,27,12,17,17.50
2009,09,27,12,18,17.60
2009,09,27,12,19,17.60
2009,09,27,12,20,17.70
2009,09,27,12,21,17.70
2009,09,27,12,22,17.70
2009,09,27,12,23,17.60
2009,09,27,12,24,17.60
2009,09,27,12,25,17.50
2009,09,27,12,26,17.50
2009,09,27,12,27,17.60
2009,09,27,12,28,17.60
2009,09,27,12,29,17.70
2009,09,27,12,30,17.80
2009,09,27,12,31,17.80
2009,09,27,12,32,17.90
2009,09,27,12,33,17.90
2009,09,27,12,34,17.90
2009,09,27,12,35,18.00
2009,09,27,12,36,18.10
2009,09,27,12,37,18.10
2009,09,27,12,38,18.10
2009,09,27,12,39,18.10
2009,09,27,12,40,18.00
2009,09,27,12,41,17.90
2009,09,27,12,42,17.90
2009,09,27,12,43,18.00
2009,09,27,12,44,18.10
2009,09,27,12,45,18.20
2009,09,27,12,46,18.20
2009,09,27,12,47,18.30
2009,09,27,12,48,18.40
2009,09,27,12,49,18.50
2009,09,27,12,50,18.50
2009,09,27,12,51,18.50
2009,09,27,12,52,18.50
2009,09,27,12,53,18.60
2009,09,27,12,54,18.60
2009,09,27,12,55,18.60
2009,09,27,12,56,18.60
2009,09,27,12,57,18.50
2009,09,27,12,58,18.50
2009,09,27,12,59,18.60
2009,09,27,13,00,18.60
2009,09,27,13,01,18.70
2009,09,27,13,02,18.80
2009,09,27,13,03,18.90
2009,09,27,13,04,18.90
2009,09,27,13,05,18.90
2009,09,27,13,06,18.90
2009,09,27,13,07,18.90
2009,09,27,13,08,18.80
2009,09,27,13,09,18.80
2009,09,27,13,10,18.70
2009,09,27,13,11,18.70
2009,09,27,13,12,18.70
2009,09,27,13,13,18.70
2009,09,27,13,14,18.60
2009,09,27,13,15,18.60
2009,09,27,13,16,18.60
2009,09,27,13,17,18.70
2009,09,27,13,18,18.70
2009,09,27,13,19,18.80
2009,09,27,13,20,18.80
2009,09,27,13,21,18.80
2009,09,27,13,22,18.70
2009,09,27,13,23,18.70
2009,09,27,13,24,18.80
2009,09,27,13,25,18.80
2009,09,27,13,26,18.90
2009,09,27,13,27,18.90
2009,09,27,13,28,18.90
2009,09,27,13,29,18.90
2009,09,27,13,30,18.90
2009,09,27,13,31,18.90
2009,09,27,13,32,18.90
2009,09,27,13,33,18.80
2009,09,27,13,34,18.80
2009,09,27,13,35,18.80
2009,09,27,13,36,18.80
2009,09,27,13,37,18.80
2009,09,27,13,38,18.80
2009,09,27,13,39,18.70
2009,09,27,13,40,18.70
2009,09,27,13,41,18.70
2009,09,27,13,42,18.70
2009,09,27,13,43,18.80
2009,09,27,13,44,18.70
2009,09,27,13,45,18.70
2009,09,27,13,46,18.60
2009,09,27,13,47,18.60
2009,09,27,13,48,18.60
2009,09,27,13,49,18.50
2009,09,27,13,50,18.40
2009,09,27,13,51,18.40
2009,09,27,13,52,18.40
2009,09,27,13,53,18.50
2009,09,27,13,54,18.50
2009,09,27,13,55,18.50
2009,09,27,13,56,18.50
2009,09,27,13,57,18.40
2009,09,27,13,58,18.30
2009,09,27,13,59,18.30
2009,09,27,14,00,18.30
2009,09,27,14,01,18.20
2009,09,27,14,02,18.20
2009,09,27,14,03,18.20
2009,09,27,14,04,18.20
2009,09,27,14,05,18.20
2009,09,27,14,06,18.30
2009,09,27,14,07,18.30
2009,09,27,14,08,18.30
2009,09,27,14,09,18.40
2009,09,27,14,10,18.40
2009,09,27,14,11,18.50
2009,09,27,14,12,18.50
2009,09,27,14,13,18.60
2009,09,27,14,14,18.60
2009,09,27,14,15,18.60
2009,09,27,14,16,18.60
2009,09,27,14,17,18.60
2009,09,27,14,18,18.60
2009,09,27,14,19,18.70
2009,09,27,14,20,18.70
2009,09,27,14,21,18.70
2009,09,27,14,22,18.80
2009,09,27,14,23,18.90
2009,09,27,14,24,18.90
2009,09,27,14,25,19.00
2009,09,27,14,26,19.10
2009,09,27,14,27,19.10
2009,09,27,14,28,19.10
2009,09,27,14,29,18.90
2009,09,27,14,30,18.90
2009,09,27,14,31,19.00
2009,09,27,14,32,19.10
2009,09,27,14,33,19.10
2009,09,27,14,34,19.10
2009,09,27,14,35,19.10
2009,09,27,14,36,18.90
2009,09,27,14,37,18.90
2009,09,27,14,38,18.80
2009,09,27,14,39,18.70
2009,09,27,14,40,18.60
2009,09,27,14,41,18.60
2009,09,27,14,42,18.60
2009,09,27,14,43,18.60
2009,09,27,14,44,18.60
2009,09,27,14,45,18.50
2009,09,27,14,46,18.50
2009,09,27,14,47,18.40
2009,09,27,14,48,18.40
2009,09,27,14,49,18.40
2009,09,27,14,50,18.40
2009,09,27,14,51,18.40
2009,09,27,14,52,18.40
2009,09,27,14,53,18.40
2009,09,27,14,54,18.40
2009,09,27,14,55,18.40
2009,09,27,14,56,18.40
2009,09,27,14,57,18.30
2009,09,27,14,58,18.30
2009,09,27,14,59,18.30
2009,09,27,15,00,18.30
2009,09,27,15,01,18.30
2009,09,27,15,02,18.30
2009,09,27,15,03,18.30
2009,09,27,15,04,18.40
2009,09,27,15,05,18.50
2009,09,27,15,06,18.60
2009,09,27,15,07,18.70
2009,09,27,15,08,18.80
2009,09,27,15,09,18.80
2009,09,27,15,10,18.80
2009,09,27,15,11,18.80
2009,09,27,15,12,18.80
2009,09,27,15,13,18.90
2009,09,27,15,14,18.90
2009,09,27,15,15,19.00
2009,09,27,15,16,19.10
2009,09,27,15,17,19.10
2009,09,27,15,18,19.10
2009,09,27,15,19,19.10
2009,09,27,15,20,19.00
2009,09,27,15,21,18.90
2009,09,27,15,22,18.90
2009,09,27,15,23,18.80
2009,09,27,15,24,18.80
2009,09,27,15,25,18.80
2009,09,27,15,26,18.80
2009,09,27,15,27,18.70
2009,09,27,15,28,18.70
2009,09,27,15,29,18.70
2009,09,27,15,30,18.70
2009,09,27,15,31,18.60
2009,09,27,15,32,18.70
2009,09,27,15,33,18.70
2009,09,27,15,34,18.70
2009,09,27,15,35,18.80
2009,09,27,15,36,18.80
2009,09,27,15,37,18.90
2009,09,27,15,38,18.90
2009,09,27,15,39,18.90
2009,09,27,15,40,18.90
2009,09,27,15,41,18.90
2009,09,27,15,42,18.90
2009,09,27,15,43,18.90
2009,09,27,15,44,18.80
2009,09,27,15,45,18.80
2009,09,27,15,46,18.90
2009,09,27,15,47,18.90
2009,09,27,15,48,18.90
2009,09,27,15,49,18.80
2009,09,27,15,50,18.80
2009,09,27,15,51,18.70
2009,09,27,15,52,18.70
2009,09,27,15,53,18.70
2009,09,27,15,54,18.70
2009,09,27,15,55,18.70
2009,09,27,15,56,18.70
2009,09,27,15,57,18.70
2009,09,27,15,58,18.80
2009,09,27,15,59,18.80
2009,09,27,16,00,18.80
2009,09,27,16,01,18.80
2009,09,27,16,02,18.80
2009,09,27,16,03,18.80
2009,09,27,16,04,18.70
2009,09,27,16,05,18.70
2009,09,27,16,06,18.70
2009,09,27,16,07,18.70
2009,09,27,16,08,18.70
2009,09,27,16,09,18.70
2009,09,27,16,10,18.80
2009,09,27,16,11,18.80
2009,09,27,16,12,18.90
2009,09,27,16,13,18.90
2009,09,27,16,14,18.90
2009,09,27,16,15,18.90
2009,09,27,16,16,18.90
2009,09,27,16,17,18.90
2009,09,27,16,18,18.90
2009,09,27,16,19,18.90
2009,09,27,16,20,18.90
2009,09,27,16,21,18.90
2009,09,27,16,22,18.90
2009,09,27,16,23,18.90
2009,09,27,16,24,19.00
2009,09,27,16,25,19.10
2009,09,27,16,26,19.10
2009,09,27,16,27,19.20
2009,09,27,16,28,19.30
2009,09,27,16,29,19.30
2009,09,27,16,30,19.40
2009,09,27,16,31,19.40
2009,09,27,16,32,19.40
2009,09,27,16,33,19.40
2009,09,27,16,34,19.30
2009,09,27,16,35,19.30
2009,09,27,16,36,19.30
2009,09,27,16,37,19.30
2009,09,27,16,38,19.20
2009,09,27,16,39,19.10
2009,09,27,16,40,19.10
2009,09,27,16,41,19.10
2009,09,27,16,42,19.10
2009,09,27,16,43,19.00
2009,09,27,16,44,18.90
2009,09,27,16,45,18.90
2009,09,27,16,46,18.90
2009,09,27,16,47,18.90
2009,09,27,16,48,18.90
2009,09,27,16,49,18.90
2009,09,27,16,50,18.90
2009,09,27,16,51,19.00
2009,09,27,16,52,19.10
2009,09,27,16,53,19.10
2009,09,27,16,54,19.10
2009,09,27,16,55,19.10
2009,09,27,16,56,19.10
2009,09,27,16,57,19.20
2009,09,27,16,58,19.20
2009,09,27,16,59,19.20
2009,09,27,17,00,19.20
2009,09,27,17,01,19.20
2009,09,27,17,02,19.30
2009,09,27,17,03,19.30
2009,09,27,17,04,19.40
2009,09,27,17,05,19.40
2009,09,27,17,06,19.40
2009,09,27,17,07,19.40
2009,09,27,17,08,19.50
2009,09,27,17,09,19.50
2009,09,27,17,10,19.60
2009,09,27,17,11,19.70
2009,09,27,17,12,19.70
2009,09,27,17,13,19.70
2009,09,27,17,14,19.70
2009,09,27,17,15,19.70
2009,09,27,17,16,19.70
2009,09,27,17,17,19.70
2009,09,27,17,18,19.70
2009,09,27,17,19,19.70
2009,09,27,17,20,19.70
2009,09,27,17,21,19.70
2009,09,27,17,22,19.70
2009,09,27,17,23,19.70
2009,09,27,17,24,19.70
2009,09,27,17,25,19.70
2009,09,27,17,26,19.70
2009,09,27,17,27,19.60
2009,09,27,17,28,19.60
2009,09,27,17,29,19.60
2009,09,27,17,30,19.60
2009,09,27,17,31,19.60
2009,09,27,17,32,19.60
2009,09,27,17,33,19.60
2009,09,27,17,34,19.60
2009,09,27,17,35,19.60
2009,09,27,17,36,19.60
2009,09,27,17,37,19.60
2009,09,27,17,38,19.50
2009,09,27,17,39,19.50
2009,09,27,17,40,19.40
2009,09,27,17,41,19.40
2009,09,27,17,42,19.40